Location: Austin
(30.3000°N, 97.7500°W)
Time: 16:31:06
(UTC-05:00)

ATLAS 3B R/B - Pass Details

Date: 12 February 2024
Orbit: 942 x 1252 km, 63.8° (Epoch: 18 June)

Event Time Altitude Azimuth Distance (km) Brightness Sun altitude
Rises 19:10:54 0° 343° (NNW) 4,176 5.9 -12.3°
Reaches altitude 10° 19:14:25 10° 357° (N) 3,225 5.2 -13.0°
Maximum altitude 19:20:27 24° 48° (NE) 2,356 4.0 -14.3°
Enters shadow 19:23:13 20° 76° (ENE) 2,558 4.0 -14.9°
